GW7081 Weather Reports


time (UTC)temp
F
wind
direction
speed
knots
gust
knots
rain 1hr
in
rain 24hr
in
rain mn
in
humidity
%
barometer
mb
20260504231520 82 269 0.9 5.2 0.00 0.00 0.00 47 1010.1
20260504230025 83 97 0.0 4.3 0.00 0.00 0.00 45 1010.2
20260504224524 83 252 0.0 5.2 0.00 0.00 0.00 45 1010.3
20260504223014 82 277 1.7 7.0 0.00 0.00 0.00 42 1010.5
20260504221516 82 16 1.7 5.2 0.00 0.00 0.00 43 1010.5
20260504220036 81 278 0.9 5.2 0.00 0.00 0.00 46 1010.6
20260504214526 83 42 1.7 6.1 0.00 0.00 0.00 48 1010.8
20260504213027 82 300 0.0 3.5 0.00 0.00 0.00 45 1010.9
20260504211524 81 106 0.9 5.2 0.00 0.00 0.00 47 1011.0
20260504210018 80 171 1.7 4.3 0.00 0.00 0.00 48 1011.2
20260504204527 80 200 1.7 5.2 0.00 0.00 0.00 48 1011.3
20260504203028 78 5 0.0 3.5 0.00 0.00 0.00 50 1011.4
20260504201528 78 89 1.7 4.3 0.00 0.00 0.00 50 1011.5
20260504200016 77 120 1.7 3.5 0.00 0.00 0.00 50 1011.7
20260504194520 76 115 0.9 5.2 0.00 0.00 0.00 52 1011.9
20260504193026 76 86 0.9 5.2 0.00 0.00 0.00 53 1012.1
20260504191526 74 215 1.7 5.2 0.00 0.00 0.00 56 1012.1
20260504190028 74 172 3.5 5.2 0.00 0.00 0.00 56 1012.1
20260504184520 73 229 1.7 5.2 0.00 0.00 0.00 57 1012.3
20260504183003 73 176 2.6 6.1 0.00 0.00 0.00 57 1012.3
20260504181514 71 157 0.9 4.3 0.00 0.00 0.00 58 1012.4
20260504180012 70 124 1.7 4.3 0.00 0.00 0.00 59 1012.4
20260504174514 69 154 0.0 6.1 0.00 0.00 0.00 62 1012.4
20260504173010 69 99 1.7 3.5 0.00 0.00 0.00 63 1012.5
20260504171547 68 167 2.6 4.3 0.00 0.00 0.00 64 1012.4
20260504081527 52 258 0.0 0.0 0.00 0.00 0.00 90 1009.6
20260504050019 60 258 0.0 0.0 0.00 0.00 0.00 79 1009.5
20260504044525 61 258 0.0 0.0 0.00 0.00 0.00 77 1009.4
20260504043026 62 258 0.0 0.0 0.00 0.00 0.00 76 1009.3
20260504041526 63 258 0.0 0.0 0.00 0.00 0.00 75 1009.0
20260504040014 65 258 0.0 0.0 0.00 0.00 0.00 71 1008.9
20260504034530 66 258 0.0 0.0 0.00 0.00 0.00 69 1008.5
20260504033036 68 258 0.0 0.0 0.00 0.00 0.00 67 1008.4
20260504031530 70 258 0.0 0.0 0.00 0.00 0.00 63 1008.2
20260504030012 72 258 0.0 0.0 0.00 0.00 0.00 61 1008.2
20260504024535 75 259 0.0 0.0 0.00 0.00 0.00 55 1008.1
20260504023020 77 259 0.0 0.9 0.00 0.00 0.00 49 1008.0
20260504021526 80 259 0.0 3.5 0.00 0.00 0.00 40 1008.0
20260504020024 82 274 0.0 3.5 0.00 0.00 0.00 37 1008.1
20260504014516 83 296 0.9 3.5 0.00 0.00 0.00 34 1008.2
20260504013020 84 283 0.0 4.3 0.00 0.00 0.00 34 1008.2
20260504011524 84 297 0.0 3.5 0.00 0.00 0.00 31 1008.3
20260504010028 85 305 1.7 7.0 0.00 0.00 0.00 30 1008.2
20260504004538 86 348 0.9 6.1 0.00 0.00 0.00 29 1008.5
20260504003018 88 355 0.9 6.1 0.00 0.00 0.00 29 1008.6
20260504001503 89 236 0.9 4.3 0.00 0.00 0.00 29 1008.7
20260504000007 89 73 0.9 7.8 0.00 0.00 0.00 28 1008.8
20260503234510 89 308 1.7 4.3 0.00 0.00 0.00 30 1008.9
20260503233015 89 351 2.6 6.1 0.00 0.00 0.00 30 1008.9